Location: De Greiden
(52.9496°N, 5.9137°E)
Time: 23:21:51
(UTC+00:00)

Cosmos 2195 Rocket - Pass Details

Date: 24 January 2021
Orbit: 948 x 994 km, 82.9° (Epoch: 01 March)

Event Time Altitude Azimuth Distance (km) Brightness Sun altitude
Rises 18:04:26 0° 179° (S) 3,696 7.6 -17.4°
Reaches altitude 10° 18:06:57 10° 177° (S) 2,753 6.9 -17.8°
Maximum altitude 18:13:14 70° 95° (E) 1,059 4.4 -18.7°
Drops below altitude 10° 18:19:33 10° 14° (NNE) 2,767 6.7 -19.7°
Sets 18:22:05 0° 12° (NNE) 3,716 7.4 -20.1°
